星链-34825(STARLINK-34825)

导读

STARLINK-34825是美国SpaceX星链星座的一员,于2025年9月21日发射升空,延续星链项目构建全球卫星互联网的目标。星链系统通过低轨卫星组网,可在全球范围提供高速宽带服务,尤其为偏远、基础设施匮乏地区覆盖网络信号,这颗卫星入轨后将补充星链网络容量,支撑星座服务能力提升。

基本信息
目录编号:
65692
目录名称:
STARLINK-34825
国际标识:
2025-212S
轨道中心:
EARTH
卫星名称:
星链-34825
卫星全名:
星链-34825(STARLINK-34825)
卫星状态:
在轨 (已飞行265 天)
发射日期:
2025-09-21 UTC
国别 :
美国 (US)
星等 :
--
轨道信息
数据来源 国际轨道数据
星历时间: 2026-06-13T14:00:02+0800
11小时前
查看轨道信息
半长轴: 6843.324km
偏心率: 0.0001405
轨道倾角: 53.159°
近地点辐角 92.853°
升交点赤经 261.730°
平近点角 327.750°
近地点: 464.225km
远地点: 466.149km
周期: 93.899分钟
每日圈数: 15.33565
详细信息
固有亮度:
5
最大亮度:
2.5
卫星平台:
Starlink V1.0
覆盖范围:
全球
运营商:
太空探索技术公司
运营商所在国:
美国
制造商(研发单位):
太空探索技术公司
制造商所在国:
美国
使用方式:
暂无
卫星简介
Starlink 计划是 SpaceX 推出的全球卫星互联网项目,通过发射低轨道卫星,为全球尤其是偏远地区提供高速、低延迟的互联网服务。自 2019 年起,Starlink 已部署数千颗卫星,旨在缩小全球数字鸿沟,推动互联网普及。该项目还为军事、航空等行业提供通信支持,带来广泛经济效益。
2D轨道图
3D轨道图
轨道高度分析图
轨道倾角分析图
轨道综合分析图
查看轨道综合分析图